TimeCDT,TemperatureF,Dew PointF,Humidity,Sea Level PressureIn,VisibilityMPH,Wind Direction,Wind SpeedMPH,Gust SpeedMPH,PrecipitationIn,Events,Conditions,WindDirDegrees,DateUTC
12:14 AM,53.6,51.8,94,29.81,10.0,Calm,Calm,-,N/A,,Light Drizzle,0,2013-06-29 05:14:00
12:33 AM,53.6,51.8,94,29.81,10.0,Calm,Calm,-,N/A,,Overcast,0,2013-06-29 05:33:00
12:54 AM,55.4,53.6,94,29.81,10.0,Calm,Calm,-,N/A,,Overcast,0,2013-06-29 05:54:00
1:13 AM,55.4,53.6,94,29.81,10.0,Calm,Calm,-,N/A,,Overcast,0,2013-06-29 06:13:00
1:33 AM,55.4,53.6,94,29.81,10.0,Calm,Calm,-,N/A,,Overcast,0,2013-06-29 06:33:00
1:54 AM,57.2,55.4,94,29.81,10.0,Calm,Calm,-,N/A,,Overcast,0,2013-06-29 06:54:00
2:13 AM,57.2,55.4,94,29.81,7.0,Calm,Calm,-,N/A,Rain,Rain,0,2013-06-29 07:13:00
2:34 AM,57.2,55.4,94,29.82,10.0,Calm,Calm,-,N/A,,Overcast,0,2013-06-29 07:34:00
2:54 AM,57.2,55.4,94,29.81,7.0,SW,3.5,-,N/A,,Overcast,220,2013-06-29 07:54:00
3:13 AM,57.2,55.4,94,29.81,7.0,Calm,Calm,-,N/A,,Overcast,0,2013-06-29 08:13:00
3:34 AM,57.2,55.4,94,29.81,7.0,Calm,Calm,-,N/A,,Overcast,0,2013-06-29 08:34:00
3:53 AM,57.2,55.4,94,29.81,10.0,Calm,Calm,-,N/A,,Overcast,0,2013-06-29 08:53:00
4:13 AM,57.2,55.4,94,29.82,10.0,Calm,Calm,-,N/A,,Overcast,0,2013-06-29 09:13:00
4:34 AM,57.2,57.2,100,29.82,10.0,Calm,Calm,-,N/A,,Mostly Cloudy,0,2013-06-29 09:34:00
4:54 AM,59.0,57.2,94,29.82,10.0,Calm,Calm,-,N/A,,Mostly Cloudy,0,2013-06-29 09:54:00
5:13 AM,59.0,57.2,94,29.83,10.0,Calm,Calm,-,N/A,,Scattered Clouds,0,2013-06-29 10:13:00
5:34 AM,59.0,57.2,94,29.83,10.0,Calm,Calm,-,N/A,,Scattered Clouds,0,2013-06-29 10:34:00
5:54 AM,59.0,57.2,94,29.84,10.0,Calm,Calm,-,N/A,,Scattered Clouds,0,2013-06-29 10:54:00
6:13 AM,60.8,57.2,88,29.84,10.0,Calm,Calm,-,N/A,,Scattered Clouds,0,2013-06-29 11:13:00
6:34 AM,60.8,57.2,88,29.85,10.0,Calm,Calm,-,N/A,,Scattered Clouds,0,2013-06-29 11:34:00
6:53 AM,60.8,57.2,88,29.85,10.0,Calm,Calm,-,N/A,,Scattered Clouds,0,2013-06-29 11:53:00
7:14 AM,60.8,57.2,88,29.86,10.0,Calm,Calm,-,N/A,,Scattered Clouds,0,2013-06-29 12:14:00
7:34 AM,60.8,57.2,88,29.86,10.0,Calm,Calm,-,N/A,,Clear,0,2013-06-29 12:34:00
7:53 AM,62.6,59.0,88,29.87,10.0,Calm,Calm,-,N/A,,Clear,0,2013-06-29 12:53:00
8:14 AM,62.6,59.0,88,29.87,10.0,Calm,Calm,-,N/A,,Clear,0,2013-06-29 13:14:00
8:33 AM,62.6,59.0,88,29.88,10.0,Calm,Calm,-,N/A,,Clear,0,2013-06-29 13:33:00
8:53 AM,62.6,59.0,88,29.89,10.0,Calm,Calm,-,N/A,,Scattered Clouds,0,2013-06-29 13:53:00
9:14 AM,60.8,57.2,88,29.89,10.0,Calm,Calm,-,N/A,,Scattered Clouds,0,2013-06-29 14:14:00
9:33 AM,60.8,57.2,88,29.90,10.0,East,4.6,-,N/A,,Clear,80,2013-06-29 14:33:00
9:53 AM,62.6,57.2,82,29.90,10.0,Calm,Calm,-,N/A,,Scattered Clouds,0,2013-06-29 14:53:00
10:14 AM,60.8,57.2,88,29.91,10.0,NNE,5.8,-,N/A,,Scattered Clouds,30,2013-06-29 15:14:00
10:33 AM,60.8,57.2,88,29.91,10.0,NNE,4.6,-,N/A,,Clear,30,2013-06-29 15:33:00
10:54 AM,60.8,57.2,88,29.92,10.0,NE,3.5,-,N/A,,Clear,50,2013-06-29 15:54:00
11:13 AM,62.6,57.2,82,29.92,10.0,ENE,3.5,-,N/A,,Clear,70,2013-06-29 16:13:00
11:34 AM,64.4,59.0,83,29.93,10.0,East,3.5,-,N/A,,Clear,100,2013-06-29 16:34:00
11:53 AM,62.6,57.2,82,29.93,10.0,East,4.6,-,N/A,,Scattered Clouds,90,2013-06-29 16:53:00
12:13 PM,62.6,57.2,82,29.93,10.0,NE,4.6,-,N/A,,Scattered Clouds,50,2013-06-29 17:13:00
12:34 PM,62.6,57.2,82,29.94,10.0,NNE,4.6,-,N/A,,Clear,30,2013-06-29 17:34:00
12:53 PM,62.6,57.2,82,29.94,10.0,NNE,4.6,-,N/A,,Clear,20,2013-06-29 17:53:00
1:14 PM,62.6,57.2,82,29.95,10.0,NE,5.8,-,N/A,,Scattered Clouds,40,2013-06-29 18:14:00
1:33 PM,62.6,57.2,82,29.95,10.0,NNE,6.9,-,N/A,,Clear,20,2013-06-29 18:33:00
1:53 PM,62.6,57.2,82,29.96,10.0,North,5.8,-,N/A,,Clear,350,2013-06-29 18:53:00
2:14 PM,62.6,57.2,82,29.95,10.0,North,4.6,-,N/A,,Clear,10,2013-06-29 19:14:00
2:33 PM,62.6,55.4,77,29.96,10.0,North,3.5,-,N/A,,Clear,360,2013-06-29 19:33:00
2:53 PM,62.6,53.6,72,29.96,10.0,NNE,3.5,-,N/A,,Clear,20,2013-06-29 19:53:00
3:14 PM,64.4,55.4,73,29.96,10.0,NNE,3.5,-,N/A,,Clear,30,2013-06-29 20:14:00
3:33 PM,62.6,55.4,77,29.96,10.0,NNE,3.5,-,N/A,,Scattered Clouds,20,2013-06-29 20:33:00
3:53 PM,64.4,53.6,68,29.96,10.0,North,3.5,-,N/A,,Clear,360,2013-06-29 20:53:00
4:14 PM,64.4,51.8,64,29.96,10.0,Calm,Calm,-,N/A,,Scattered Clouds,0,2013-06-29 21:14:00
4:33 PM,64.4,53.6,68,29.96,10.0,Calm,Calm,-,N/A,,Scattered Clouds,0,2013-06-29 21:33:00
4:54 PM,64.4,51.8,64,29.97,10.0,Calm,Calm,-,N/A,,Scattered Clouds,0,2013-06-29 21:54:00
5:13 PM,66.2,48.2,52,29.97,10.0,Calm,Calm,-,N/A,,Clear,0,2013-06-29 22:13:00
5:33 PM,66.2,51.8,60,29.97,10.0,Calm,Calm,-,N/A,,Clear,0,2013-06-29 22:33:00
5:54 PM,66.2,50.0,56,29.97,10.0,Calm,Calm,-,N/A,,Clear,0,2013-06-29 22:54:00
6:13 PM,66.2,51.8,60,29.97,10.0,Calm,Calm,-,N/A,,Clear,0,2013-06-29 23:13:00
6:34 PM,64.4,53.6,68,29.97,10.0,Calm,Calm,-,N/A,,Clear,0,2013-06-29 23:34:00
6:54 PM,64.4,51.8,64,29.98,10.0,North,3.5,-,N/A,,Scattered Clouds,10,2013-06-29 23:54:00
7:13 PM,64.4,51.8,64,29.98,10.0,North,3.5,-,N/A,,Scattered Clouds,360,2013-06-30 00:13:00
7:34 PM,64.4,53.6,68,29.98,10.0,Calm,Calm,-,N/A,,Clear,0,2013-06-30 00:34:00
7:53 PM,64.4,53.6,68,29.98,10.0,Calm,Calm,-,N/A,,Clear,0,2013-06-30 00:53:00
8:14 PM,64.4,51.8,64,29.99,10.0,Calm,Calm,-,N/A,,Clear,0,2013-06-30 01:14:00
8:33 PM,64.4,51.8,64,29.99,10.0,Calm,Calm,-,N/A,,Clear,0,2013-06-30 01:33:00
8:54 PM,64.4,51.8,64,29.99,10.0,Calm,Calm,-,N/A,,Clear,0,2013-06-30 01:54:00
9:13 PM,64.4,48.2,56,29.99,10.0,Calm,Calm,-,N/A,,Clear,0,2013-06-30 02:13:00
9:33 PM,64.4,48.2,56,29.99,10.0,Calm,Calm,-,N/A,,Clear,0,2013-06-30 02:33:00
9:54 PM,64.4,51.8,64,29.99,10.0,Calm,Calm,-,N/A,,Clear,0,2013-06-30 02:54:00
10:13 PM,64.4,55.4,73,30.00,10.0,Calm,Calm,-,N/A,,Clear,0,2013-06-30 03:13:00
10:33 PM,64.4,53.6,68,30.00,10.0,SW,3.5,-,N/A,,Clear,220,2013-06-30 03:33:00
10:53 PM,62.6,55.4,77,30.00,10.0,SW,3.5,-,N/A,,Clear,220,2013-06-30 03:53:00
11:13 PM,62.6,55.4,77,30.00,10.0,Calm,Calm,-,N/A,,Clear,0,2013-06-30 04:13:00
11:34 PM,62.6,55.4,77,30.00,10.0,WSW,4.6,-,N/A,,Clear,240,2013-06-30 04:34:00
11:53 PM,60.8,55.4,82,30.01,10.0,South,3.5,-,N/A,,Clear,190,2013-06-30 04:53:00